Regional Weather Roundup
Issued by NWS

Home | Current Version | Previous Version | Text Only | Print | Product List | Glossary On
Versions: 1 2 3 4 5 6 7 8 9 10 11 12 13 14 15 16 17 18 19 20 21 22 23 24 25 26 27 28 29 30 31 32 33 34 35 36 37 38 39 40 41 42 43 44 45 46 47 48 49 50
912
ASUS43 KBIS 130310
RWRND

NORTH DAKOTA REGIONAL WEATHER ROUNDUP
NATIONAL WEATHER SERVICE BISMARCK ND
900 PM CST FRI FEB 12 2016

NOTE: "FAIR" INDICATES FEW OR NO CLOUDS BELOW 12,000 FEET WITH NO
SIGNIFICANT WEATHER AND/OR OBSTRUCTIONS TO VISIBILITY.


NDZ001>003-009>011-017-130400-
NORTHWEST NORTH DAKOTA

CITY           SKY/WX    TMP DP  RH WIND       PRES   REMARKS
WILLISTON      CLOUDY    12   2  64 SE12      30.39F WCI  -2
MINOT          CLOUDY     2  -7  66 SE5       30.51F WCI  -8
MINOT AFB      CLOUDY    -2  -8  75 CALM      30.51F
$$

NDZ018>021-031>035-040>046-130400-
SOUTHWEST NORTH DAKOTA

CITY           SKY/WX    TMP DP  RH WIND       PRES   REMARKS
BISMARCK       CLOUDY     1  -6  72 SE8       30.54F WCI -13
DICKINSON      CLOUDY    10   3  73 SE15      30.35F WCI  -7
GARRISON         N/A      4  -2  76 SE10      30.49F WCI -11
HETTINGER ARPT FLURRIES  12   4  70 SE15      30.38F WCI  -4
$$

NDZ004>008-012>016-024-026-027-054-130400-
NORTHEAST NORTH DAKOTA

CITY           SKY/WX    TMP DP  RH WIND       PRES   REMARKS
GRAND FORKS    CLOUDY    -4 -12  68 W5        30.68S WCI -15
GRND FRKS AFB  CLOUDY    -6 -14  68 NW6       30.67S WCI -19
DEVILS LAKE    CLOUDY   -14 -18  82 CALM      30.60F
$$

NDZ022-023-025-028>030-036>039-047>053-130400-
SOUTHEAST NORTH DAKOTA

CITY           SKY/WX    TMP DP  RH WIND       PRES   REMARKS
FARGO          CLOUDY    -4 -12  68 NW7       30.68S WCI -18
JAMESTOWN      CLOUDY    -6 -11  79 CALM      30.59F
$$





USA.gov is the U.S. government's official web portal to all federal, state and local government web resources and services.